OpenBCM V1.08-5-g2f4a (Linux)

Packet Radio Mailbox

IZ3LSV

[San Dona' di P. JN]

 Login: GUEST





  
I0OJJ  > KEPS     12.07.25 02:40l 341 Lines 16337 Bytes #77 (0) @ AMSAT
BID : ORB25193.1
Read: GUEST
Subj: 2Line Orbital Elements 25193.AMSAT
Path: IZ3LSV<IK6IHL<IK7NXU<HB9ON<HB9ON<PI8ZTM<PI8LAP<VE2PKT<VE3CGR<IR0AAB<
      I0OJJ
Sent: 250712/0025z @:I0OJJ.ITA.EU [Rome] obcm1.08-10-g596e
From: I0OJJ @ I0OJJ.ITA.EU (Gustavo)
To:   KEPS @ AMSAT
X-Info: This message was generated automatically


QST de W1STR

AMSAT Orbital Elements for Amateur Satellites in TLE Format
From Orbital Analysis Office
New England Sci-Tech STEM Education Center
Natick, MA July 12, 2025
To all radio amateurs


These element sets describe the orbits of various satellites 
in use by the amateur radio community. For details see:
www.amsat.org/keplerian-elements-formats/

A daily update of element sets is available at:
www.amsat.org/tle/daily-bulletin.txt
or without bulletin text:
www.amsat.org/tle/dailytle.txt


AO-07
1 07530U 74089B   25192.50547576 -.00000038  00000-0  50706-4 0  9995
2 07530 101.9934 197.1095 0012605  62.2358  89.9852 12.53690100317825
UO-11
1 14781U 84021B   25192.44502504  .00000798  00000-0  89623-4 0  9995
2 14781  97.7562 158.1878 0006614 223.3855 136.6843 14.89458883206380
AO-27
1 22825U 93061C   25192.38582454  .00000062  00000-0  40839-4 0  9992
2 22825  98.7353 254.0975 0008813  27.2392 332.9251 14.30807903658260
FO-29
1 24278U 96046B   25192.39598971 -.00000009  00000-0  29419-4 0  9997
2 24278  98.5717  82.0981 0348867 260.1489  96.0104 13.53250227427076
NOAA-15
1 25338U 98030A   25192.78510000  .00000181  00000-0  91903-4 0  9997
2 25338  98.5338 217.1392 0009003 264.2094  95.8061 14.26995134412991
GO-32
1 25397U 98043D   25192.44416662  .00000028  00000-0  32352-4 0  9991
2 25397  98.9719 172.2310 0002312 104.2236 255.9199 14.24321408402828
ISS
1 25544U 98067A   25192.82280029  .00007397  00000-0  13514-3 0  9993
2 25544  51.6336 184.9598 0002651   0.6164 359.4828 15.50489224518981
NO-44
1 26931U 01043C   25192.56992619  .00000065  00000-0  55419-4 0  9994
2 26931  67.0510  45.1288 0006224 276.7782  83.2611 14.31747058241685
SO-50
1 27607U 02058C   25192.47795088  .00000807  00000-0  11792-3 0  9992
2 27607  64.5528 102.0677 0059833 327.0934  32.6451 14.81701687213957
CO-55
1 27844U 03031E   25192.50947000  .00000202  00000-0  10700-3 0  9991
2 27844  98.6756 200.3705 0010927  94.3491 265.8937 14.24016261143188
CO-57
1 27848U 03031J   25192.47282435  .00000167  00000-0  92651-4 0  9991
2 27848  98.6784 200.3161 0010714 109.9766 250.2568 14.23348183142908
RS-22
1 27939U 03042A   25192.82368589  .00000644  00000-0  10999-3 0  9992
2 27939  98.3304   3.0588 0010132 267.5419 203.2825 14.72412798165575
CO-58
1 28895U 05043F   25192.35110753  .00000945  00000-0  16203-3 0  9991
2 28895  98.2536 337.1062 0014062 201.5689 158.4926 14.71095014 51613
CO-65
1 32785U 08021C   25192.59478142  .00003289  00000-0  23803-3 0  9996
2 32785  97.7871 164.0027 0011400 102.7165 257.5335 15.04673460933892
CO-66
1 32791U 08021J   25192.52063236  .00006987  00000-0  33415-3 0  9998
2 32791  97.7283 173.2897 0005556  72.6174 287.5667 15.19308366935342
RS-30
1 32953U 08025A   25192.83501450  .00000025  00000-0  10614-3 0  9994
2 32953  82.5009 207.1189 0018706 339.1953  20.8364 12.43166202777541
NOAA-19
1 33591U 09005A   25192.83871203  .00000152  00000-0  10522-3 0  9997
2 33591  98.9961 257.7223 0012668 272.5488  87.4233 14.13387987846660
SRMSAT
1 37841U 11058D   25192.63358896  .00000354  00000-0  48449-4 0  9990
2 37841  19.9733 320.5810 0011864  57.4175  62.2057 14.11443644709645
ZACUBE-1
1 39417U 13066B   25192.60792355  .00002729  00000-0  23876-3 0  9995
2 39417  97.7807 149.4588 0042683 306.1584  53.5691 14.96898162629700
Delfi-N3xt
1 39428U 13066N   25192.49063686  .00002662  00000-0  27376-3 0  9997
2 39428  97.8337 109.7913 0082547 255.2667 103.9391 14.88712776623822
GOMX-1
1 39430U 13066Q   25192.86967957  .00001344  00000-0  21378-3 0  9997
2 39430  97.6806  49.5482 0133820  89.0796 272.5740 14.67743700620144
LO-74
1 39440U 13066AA  25192.37465202  .00002280  00000-0  23294-3 0  9999
2 39440  97.8504 136.7192 0063455  75.5404 285.2844 14.90103424626175
AO-73
1 39444U 13066AE  25192.31339609  .00004273  00000-0  31938-3 0  9996
2 39444  97.7824 154.3555 0040888 279.4885  80.1720 15.02680650628357
DTUSAT-2
1 40030U 14033W   25192.86163103  .00004284  00000-0  27826-3 0  9991
2 40030  98.0568 166.2520 0007793 319.8186  40.2464 15.08601531601770
EO-80
1 40032U 14033Y   25192.88016507  .00004595  00000-0  29751-3 0  9994
2 40032  98.0444 165.8815 0007028 247.2288 112.8197 15.08675868601767
LILACSAT-2
1 40908U 15049K   25192.85436485  .00008319  00000-0  21359-3 0  9996
2 40908  97.5040 213.9910 0010321  53.8758 306.3441 15.39527383543195
IO-86
1 40931U 15052B   25151.18580175  .00001241  00000-0  78118-4 0  9996
2 40931   6.0006  24.0987 0012733 338.8432  21.1169 14.78805930523047
Horyu-4
1 41340U 16012D   25192.54744071  .00014705  00000-0  37726-3 0  9998
2 41340  30.9967 276.7715 0006451  39.0164 321.0946 15.38019562517718
Lapan A3
1 41603U 16040E   25192.81013571  .00002118  00000-0  75190-4 0  9998
2 41603  97.1368 196.1565 0011995 146.3716 213.8289 15.30036194502716
CAS-2T
1 41847U 16066G   25192.22110475  .00000985  00000-0  14731-3 0  9995
2 41847  98.4194 266.4052 0346968  82.8424 281.2075 14.43576405455581
CAS-4B
1 42759U 17034B   25192.88265285  .00069226  00000-0  61832-3 0  9993
2 42759  43.0053 128.7850 0019895 161.1972 198.9633 15.67236274447663
CAS-4A
1 42761U 17034D   25192.88686771  .00067698  00000-0  56613-3 0  9995
2 42761  43.0092 125.5245 0021177 166.2472 193.8975 15.68811654447697
TechnoSat
1 42829U 17042E   25192.82600728  .00002268  00000-0  17765-3 0  9998
2 42829  97.3854 359.9873 0016792 166.4496 193.7183 15.01843409435568
AO-91
1 43017U 17073E   25192.57486217  .00006625  00000-0  33525-3 0  9992
2 43017  97.5214  62.5366 0172884  57.9494 303.8393 15.05180275414025
S-Net D
1 43186U 18014G   25192.59689313  .00003018  00000-0  17907-3 0  9998
2 43186  97.5598  95.1778 0010699 111.2527 248.9847 15.12064259407219
S-Net B
1 43187U 18014H   25192.47036072  .00003178  00000-0  18844-3 0  9992
2 43187  97.5605  95.0259 0011445 107.9258 252.3221 15.12042850407190
S-Net A
1 43188U 18014J   25192.59717415  .00003010  00000-0  17853-3 0  9997
2 43188  97.5612  95.3056 0011336 108.1783 252.0683 15.12069229407213
S-Net C
1 43189U 18014K   25192.47284931  .00003217  00000-0  19064-3 0  9992
2 43189  97.5628  95.2022 0012889 102.4620 257.8054 15.12038385405744
Ten-Koh
1 43677U 18084G   25192.46871028  .00001248  00000-0  10372-3 0  9994
2 43677  98.0847   5.9862 0008325 147.5774 212.5962 15.00687129365020
PO-101
1 43678U 18084H   25192.84313060  .00002105  00000-0  18150-3 0  9999
2 43678  98.1052  10.2009 0008801 165.9033 194.2435 14.98445975365212
QO-100
1 43700U 18090A   25192.80253030  .00000154  00000-0  00000+0 0  9991
2 43700   0.0221  47.2797 0002563 100.3604  97.0142  1.00269063 24508
MinXSS-2
1 43758U 18099A   25192.13023274  .00009001  00000-0  34668-3 0  9995
2 43758  97.5006 258.2819 0012337  51.8087 308.4260 15.26518029361783
AO-95
1 43770U 18099N   25192.43241488  .00005387  00000-0  27018-3 0  9995
2 43770  97.4899 250.1719 0012220 101.9779 258.2826 15.17688021361388
RANGE-A
1 43773U 18099R   25192.55807779  .00003036  00000-0  19393-3 0  9998
2 43773  97.4459 240.0335 0012811  84.3898 275.8792 15.09321388361048
MOVE-II
1 43780U 18099Y   25192.76925304  .02552099  24442-5  18974-2 0  9998
2 43780  97.4562 271.5319 0014473 263.3031  96.6608 16.15203344362917
SNUSat 2
1 43782U 18099AA  25192.57801605  .00004546  00000-0  24662-3 0  9994
2 43782  97.4578 246.8052 0012907  49.5999 310.6357 15.14988982361344
SnugLite
1 43784U 18099AC  25192.58742238  .00005333  00000-0  26530-3 0  9994
2 43784  97.4391 246.4410 0004599  62.6668 297.5034 15.18029701361490
ITASat 1
1 43786U 18099AE  25192.61965405  .00004135  00000-0  23553-3 0  9994
2 43786  97.4547 246.2605 0015941  96.3624 263.9424 15.13253630361303
EAGLET 1
1 43790U 18099AJ  25191.71324259  .00002327  00000-0  14981-3 0  9991
2 43790  97.4744 245.2267 0013561  84.6018 275.6757 15.09262558360765
ESEO
1 43792U 18099AL  25192.36509063  .00000449  00000-0  37900-4 0  9993
2 43792  97.4436 238.6997 0013941  56.8030 303.4530 15.02697389360595
CSIM
1 43793U 18099AM  25192.76609581  .00099683  00000-0  44792-3 0  9998
2 43793  97.4766 273.3461 0001696 148.3637 211.7735 15.83837185362722
JO-97
1 43803U 18099AX  25192.62050067  .00006947  00000-0  31233-3 0  9991
2 43803  97.4643 251.4197 0008108  45.0003 315.1889 15.21413000361643
Suomi 100
1 43804U 18099AY  25192.42390994  .00005316  00000-0  25769-3 0  9992
2 43804  97.4708 250.4283 0013019  44.2098 316.0174 15.18873649361533
ISAT
1 43879U 18111D   25192.20633053  .00010648  00000-0  35902-3 0  9995
2 43879  97.5941 107.3172 0010801  88.7068 271.5410 15.30858945358538
UWE-4
1 43880U 18111E   25192.27193420  .00007795  00000-0  29965-3 0  9994
2 43880  97.5884 105.6366 0013886  98.6487 261.6325 15.26617183358462
Sparrow
1 43881U 18111F   25192.55403222  .00013510  00000-0  43681-3 0  9993
2 43881  97.6089 110.6772 0008861 118.2589 241.9547 15.32166816358687
Prox-1
1 44339U 19036A   25192.36941423  .00005210  00000-0  63252-3 0  9992
2 44339  23.9951 212.8971 0007872  77.7452 282.3926 14.80449000322739
SONATE
1 44400U 19038Q   25185.47540524  .09032085  27445-5  31847-3 0  9995
2 44400  97.6609 216.4776 0012462 246.7970 113.2018 16.43248376333575
Taurus 1
1 44530U 19059C   25192.80528198  .00003470  00000-0  64062-3 0  9995
2 44530  98.6103 333.7392 0007921 296.0167  64.0219 14.66133580308667
Duchifat 3
1 44854U 19089C   25192.23402696  .00027218  00000-0  49169-3 0  9995
2 44854  36.9409 153.5715 0006405 231.2386 128.7799 15.48831472307922
TO-108
1 44881U 19093C   25192.82199778  .00000559  00000-0  70618-4 0  9992
2 44881  97.7918 267.7973 0015054 122.8432 237.4235 14.85652833300864
